Regional Weather Roundup
Issued by NWS Charleston, SC

Current Version | Previous Version | Graphics & Text | Print | Product List | Glossary On
Versions: 1 2 3 4 5 6 7 8 9 10 11 12 13 14 15 16 17 18 19 20 21 22 23 24 25 26 27 28 29 30 31 32 33 34 35 36 37 38 39 40 41 42 43 44 45 46 47 48 49 50
000
ASUS42 KCHS 200810
RWRCHS

REGIONAL WEATHER ROUNDUP
NATIONAL WEATHER SERVICE CHARLESTON SC
400 AM EDT WED AUG 20 2014

NOTE: "FAIR" INDICATES FEW OR NO CLOUDS BELOW 12,000 FEET WITH NO
SIGNIFICANT WEATHER AND/OR OBSTRUCTIONS TO VISIBILITY.

NOT ALL STATIONS ARE QUALITY CONTROLLED BY THE NATIONAL
WEATHER SERVICE. USE DATA WITH CAUTION...ESPECIALLY
DEWPOINT OBSERVATIONS.

SCZ027-030-031-034>040-042>050-200900-
...SOUTH CAROLINA...

CITY           SKY/WX    TMP DP  RH WIND       PRES   REMARKS
N CHARLESTON   CLEAR     77  73  87 W9        29.91R
WATERFRONT PRK   N/A     77 N/A N/A W7          N/A
FORT JOHNSON   NOT AVBL
MOUNT PLEASANT FAIR      77  73  88 W7        29.90S
JOHNS ISLAND   SUNNY     77  73  88 CALM      29.91S
PINOPOLIS        N/A     79  73  83 W13       29.81F
MONCKS CORNER    N/A     75  75 100 W3        29.91R
SUMMERVILLE    FAIR      73  73 100 W5        29.92R
BEAUFORT MCAS  CLEAR     75  72  90 W7        29.92S
BEAUFORT ARPT  FAIR      75  73  94 W7        29.92S
HILTON HEAD IS CLEAR     75  73  94 SW7       29.94S
GEORGETOWN     NOT AVBL
WALTERBORO     SUNNY     73 N/A N/A W5        29.92S
ORANGEBURG     CLEAR     73  70  90 CALM      29.91F
BARNWELL       FAIR      73  72  94 SW3       29.92F
AIKEN          FAIR      72  72 100 SW3       29.95S
MANNING        FAIR      75 N/A N/A CALM      29.90S
KINGSTREE      NOT AVBL
COLUMBIA       PTCLDY    75  70  84 W5        29.90R
SUMTER         CLEAR     74  72  92 SW5       29.89S
FLORENCE       PTCLDY    74  72  93 CALM      29.89S
MYRTLE BEACH   CLEAR     77  73  88 W8        29.88S
N MYRTLE BEACH CLEAR     76  74  93 W5        29.88R

$$

GAZ063-065-086>088-099>101-113>116-118-119-134-136>141-150-200900-
...GEORGIA...

CITY           SKY/WX    TMP DP  RH WIND       PRES   REMARKS
SAVANNAH ARPT  CLEAR     73  70  90 W5        29.94F
HUNTER AAF     CLEAR     74  71  90 W6        29.92S
FORT STEWART   CLEAR     72  69  91 SW6       29.93F
STATESBORO     NOT AVBL
SYLVANIA       SUNNY     73  73 100 CALM      29.94S
CLAXTON        FAIR      73  73 100 CALM      29.94S
THOMSON        MOCLDY    76  76  98 W3        29.97R
AUGUSTA-BUSH   CLEAR     71  70  96 CALM      29.91S
AUGUSTA-DANIEL CLEAR     76  71  85 SW5       29.92S
SWAINSBORO     FAIR      73  73 100 CALM      29.95S
VIDALIA          N/A     72  72 100 SW3       29.95S
ALMA           CLEAR     70  69  97 CALM      29.96S FOG
WAYCROSS       CLEAR     75  74  97 SW3       29.96S
JESUP            N/A     73  72  94 W3        29.96S
BRUNSWICK      NOT AVBL
SAINT SIMONS   CLEAR     76  72  87 SW5       29.95F

$$

SCZ027-028-034-036>038-045-046-048>050-GAZ119-141-200900-
...LAKE AND SUPPLEMENTAL COASTAL OBSERVATIONS...

STATION/POSITION TIME  TEMP    WIND        PRES    WAVE   SWELL
                       AIR SEA DIR/SP/G            HT/PER HT/PER/DIR
                 (UTC) (F)     (DEG/KT/KT) (MB)    (FT/S) (FT/S/D)
UPR LAKE MARION  NOT AVBL
WINYAH BAY       0700   77     260/  5     1012.0S
LAKE MURRAY      0700   77     280/  5/  7 1011.9S
ACE BASIN NERRS  0700   76     260/  3     1013.0S
FORT PULASKI     0800   76     250/  8/ 11 1013.9R
SAPELO ISLAND    0700   78     260/  8     1015.0S

$$

ANZ835-935-AMZ111-154-330-350-352-354-374-450-454-472-200900-
...C-MAN AND BUOY OBSERVATIONS...

STATION/POSITION TIME  TEMP    WIND        PRES    WAVE   SWELL
                       AIR SEA DIR/SP/G            HT/PER HT/PER/DIR
                 (UTC) (F)     (DEG/KT/KT) (MB)    (FT/S) (FT/S/D)
FOLLY BEACH CMAN 0700   77     260/  6/  7 1013.0F
BUOY 41004       0800   82 83  260/ 16/ 17 1011.6R   4/ 5   2/ 8
BUOY 41008       0800   82 85  280/ 17/ 21 1013.7S   3/ 4
5E ST. MARYS GA  0800      81                N/A     1/ 2
FRYING PAN BUOY  NOT AVBL
BUOY 41025       0800   79     310/  6/  6 1010.4R   3/ 7   2/200/ 7
CAPE LOOKOUT NC  0700   79     340/  7/  8 1010.2F
BUOY 41002       0721   81 81  230/ 19/ 23 1013.4F   6/ 6   2/ 90/ 9
BUOY 41010       0800   84 86  200/ 14/ 16 1015.4F   3/ 4   2/130/ 8
BUOY 41012       NOT AVBL
ST AUGUSTINE FL  0800   78     270/  6/  8 1015.6F
CAPERS NEARSHORE 0700   80     270/ 16/ 17   N/A
FRIPP NEARSHORE  NOT AVBL


$$



USA.gov is the U.S. government's official web portal to all federal, state and local government web resources and services.